Flight Information

DEPARTURE
ASPEN, CO
Elevation:
7837
Runways:
15/33 - 8006x100 - ASPH-G
ATIS:
120.4
Clearance Delivery:
123.75
Ground:
121.9
Tower:
ASPEN TOWER 118.85
DESTINATION
,
Elevation:
TPA:
1000 (est.)


6179.2 NM79° True-12° Var66° HDG

Flight Plan:
(click to file on line)

1. Type
2. Aircraft Identification
3. Aircraft Type / Special Equipment
4. True Airspeed
kts
5. Departure Airport
(ICAO code)
6. Arriving Airport
(ICAO code)
7. Cruising Altitude
ft
8. Alternate Airport
(ICAO code)
9. Route of Flight
10. Remarks


00:00:00 Departure ATIS: Destination ATIS:

Clearance Limit:
Route:
Altitude: Expect in minutes
Frequency:
Transponder: (7500 Hijack / 7600 Lost Comms / 7700 Emergency)


KASE 281153Z AUTO 20003KT 10SM CLR M03/M08 A3042 RMK AO2 SLP248 T10281083 10028 21039 53007
Time: 2020-09-28T11:53:00Z
1601296700
Winds: 200 @ 3 kts
Visibility: 10.0 sm
Clouds (AGL): CLR
Temperature: -2.8 C
Dew Point: -8.3 C
Pressure: 30.41929 in Hgbr


Notes:

Data extracted from FAA Digital Chart Supplement. Effective: 0901Z Thursday, Sep 10, 2020 to 0901Z Thursday, Nov 5, 2020
Current ATIS data is provided courtisy of PilotEdge.